Volver al catálogo

STARLINK-31720

ActivoComunicacionesVLEO
NORAD 59497·PAYLOAD·🇺🇸 United States

Lanzado Apr 13, 2024 desde Cape Canaveral Space Force Station

Loading…

Próximos Pases (próximas 24 horas)

TLE

ActualizadoSource: CelesTrak SupGP

Época: Sep 14, 2026, 21:26 UTC

1 59497C 24071P   26257.89354167 -.00002903  00000+0 -10516-3 0  2571
2 59497  43.0018 351.6920 0001570 269.9071 191.4002 15.27575424    15

Sigue STARLINK-31720 en tiempo real con AllMySat

Download on the App Store